Regional Weather Roundup
Issued by NWS

Home | Current Version | Previous Version | Text Only | Print | Product List | Glossary Off
Versions: 1 2 3 4 5 6 7 8 9 10 11 12 13 14 15 16 17 18 19 20 21 22 23 24 25 26 27 28 29 30 31 32 33 34 35 36 37 38 39 40 41 42 43 44 45 46 47 48 49 50

000
ASUS43 KLOT 242209
RWRIL

ILLINOIS REGIONAL WEATHER ROUNDUP
NATIONAL WEATHER SERVICE CHICAGO/ROMEOVILLE IL
500 PM CDT SAT SEP 24 2016

NOTE: "FAIR" INDICATES FEW OR NO CLOUDS BELOW 12,000 FEET WITH NO
SIGNIFICANT WEATHER AND/OR OBSTRUCTIONS TO VISIBILITY.

* THESE STATIONS ARE NOT UNDER NWS QUALITY CONTROL. THEY ALSO MAY NOT
  REPORT WEATHER SUCH AS PRECIPITATION OR FOG.

ILZ001-002-007-009-015-016-024-242300-
NORTHWEST ILLINOIS

CITY           SKY/WX    TMP DP  RH WIND       PRES   REMARKS
MOLINE         SUNNY     81  69  67 E16       30.03F HX  84
STERLING*      MOSUNNY   79  68  69 E7        30.08F HX  81
SAVANNA*       SUNNY     77  67  72 SE5       30.07F HAZE
$$

ILZ003-004-008-010-011-017-018-242300-
NORTH CENTRAL ILLINOIS

CITY           SKY/WX    TMP DP  RH WIND       PRES   REMARKS
ROCKFORD       MOSUNNY   75  64  68 E9        30.12F
FREEPORT*      MOSUNNY   74  65  73 E12G17    30.12F
ROCHELLE*      PTSUNNY   77  66  69 E9        30.11F
DE KALB*       MOSUNNY   74  66  75 E9        30.13F
$$

ILZ005-006-012>014-019>023-242300-
NORTHEAST ILLINOIS

CITY           SKY/WX    TMP DP  RH WIND       PRES   REMARKS
CHICAGO-OHARE  MOSUNNY   72  63  73 NE10      30.13F
CHICAGO-MIDWAY MOSUNNY   73  62  68 NE12      30.13F
AURORA         PTSUNNY   78  65  63 E10       30.12F HX  80
LANSING*       SUNNY     73  66  77 NE6       30.13S
JOLIET*        SUNNY     79  68  68 NE10      30.11F HX  82
WAUKEGAN       CLOUDY    68  62  81 E7        30.15F
DUPAGE AIRPORT CLOUDY    75  63  66 E13       30.12F
KANKAKEE*      MOSUNNY   82  67  60 NE8       30.10F HX  84
WHEELING       SUNNY     70  62  76 NE8       30.15F
MORRIS*        MOSUNNY   81  66  61 CALM      30.09F HX  83
ROMEOVILLE*    MOSUNNY   76  68  75 E12       30.12S
NORTHERLY ISL    N/A     71  63  75 NE8         N/A
$$

LMZ740>746-242300-
SOUTHERN LAKE MICHIGAN

STATION/POSITION SKY/WX   TEMP    WIND        PRES    VSBY  WAVE
                          AIR SEA DIR/SP/G                  HT/PER
                          (F)     (DEG/KT/KT) (MB)    (MI)  (FT/S)
SOUTHERN BUOY              68 72   80/ 10/ 12 1021.0F         2/ 4
WILMETTE HARBOR            67 66   90/  6/  8   N/A           2/ 5
HARRISON CRIB              70      70/ 12/ 13   N/A
BURNHAM HARBOR             71      40/  8/  9   N/A
CALUMET HARBOR             70      40/  8/ 11 1020.3F
BURNS HARBOR               70      70/  7/ 15 1020.7F
MICHIGAN CITY              69      10/ 11/ 12   N/A
MICHIGAN CITY 6N           71 71   40/ 12/ 16   N/A           2/ 3
ST. JOSEPH                 71 71   30/  6/ 10 1020.4F         1
$$

ILZ025>027-034>036-040-047-049-050-058-095>099-242300-
WEST-CENTRAL ILLINOIS

CITY           SKY/WX    TMP DP  RH WIND       PRES   REMARKS
QUINCY         SUNNY     88  62  41 S10       30.01F HX  88
GALESBURG*     SUNNY     85  64  48 SE6       30.03F HX  86
MACOMB*        CLOUDY    89  62  41 SE9G17    30.04F HX  89
JACKSONVILLE*  SUNNY     88  64  45 SE7       30.02F HX  89
PITTSFIELD*    MOSUNNY   89  65  45 S6        30.03F HX  91
$$

ILZ028>032-037-038-041>044-048-051>054-059>061-242300-
CENTRAL ILLINOIS

CITY           SKY/WX    TMP DP  RH WIND       PRES   REMARKS
PONTIAC        SUNNY     85  69  57 NE8       30.08F HX  89
BLOOMINGTON    MOSUNNY   85  67  54 E3        30.07F HX  87
DECATUR        SUNNY     89  62  40 VRB3      30.05F HX  89
PEORIA         SUNNY     86  69  56 NE6       30.05F HX  90
LACON*         MOSUNNY   83  67  57 NE7       30.05F HX  86
LINCOLN*       MOSUNNY   91  64  40 CALM      30.04F HX  93
SPRINGFIELD    SUNNY     90  60  36 SE5       30.03F HX  89
TAYLORVILLE    SUNNY     89  61  40 S5        30.05S HX  88
$$

ILZ033-039-045-046-055>057-062-063-242300-
EAST-CENTRAL ILLINOIS

CITY           SKY/WX    TMP DP  RH WIND       PRES   REMARKS
CHAMPAIGN      SUNNY     86  65  49 E7        30.06F HX  88
RANTOUL*       MOSUNNY   85  69  57 E8        30.07F HX  89
MATTOON        SUNNY     86  62  44 SE6       30.05F HX  86
PARIS*         MOSUNNY   86  68  54 E3        30.07F HX  89
$$

ILZ079-100>102-242300-
SOUTHWEST ILLINOIS

CITY           SKY/WX    TMP DP  RH WIND       PRES   REMARKS
BELLEVILLE     SUNNY     90  65  44 SE6       30.01F HX  91
CAHOKIA*       SUNNY     91  62  37 CALM      30.01F HX  91
SPARTA*        PTSUNNY   85  69  58 CALM      30.05S HX  89
$$

ILZ064>066-069>071-074>076-080>082-084>086-088>090-092>094-242300-
SOUTH-CENTRAL ILLINOIS

CITY           SKY/WX    TMP DP  RH WIND       PRES   REMARKS
CARBONDALE     SUNNY     87  69  54 SE3       30.03F HX  91
CAIRO*         SUNNY     90  67  47 E5        30.02F HX  93
EFFINGHAM*     SUNNY     87  66  49 CALM      30.07S HX  89
MARION         MOSUNNY   90  66  45 S6        30.05F HX  92
MT. VERNON     SUNNY     90  68  48 CALM      30.05F HX  93
CENTRALIA*     SUNNY     88  70  55 SE3       30.04F HX  93
SALEM*         SUNNY     88  66  46 CALM      30.05F HX  90
METROPOLIS*    SUNNY     91  67  45 CALM      30.04S HX  94
$$

ILZ067-068-072-073-078-083-087-091-242300-
SOUTHEAST ILLINOIS

CITY           SKY/WX    TMP DP  RH WIND       PRES   REMARKS
LAWRENCEVILLE  MOSUNNY   90  61  37 NE3       30.06S HX  90
FLORA*         SUNNY     89  66  46 SW3       30.05F HX  91
FAIRFIELD*     SUNNY     87  67  50 CALM      30.04F HX  89
HARRISBURG*    SUNNY     89  67  47 CALM      30.04F HX  92
ROBINSON*      SUNNY     86  68  54 E3        30.07S HX  89
CARMI*         SUNNY     89  66  46 W3        30.04F HX  91
$$

ABBREVIATIONS USED IN REMARKS
   TC - TEMPERATURE IN CELSIUS
  WCI - WIND CHILL INDEX
   HX - HEAT INDEX
  VSB - VISIBILITY
$$





USA.gov is the U.S. government's official web portal to all federal, state and local government web resources and services.